[sarex] 2 Line ISS Keps 3-24

Dave Larsen PhD doc at volcano.net
Tue Mar 24 06:05:32 PDT 2009


ISS
1 25544U 98067A   09082.57215278  .00177566  00000-0  13224-2 0  5213
2 25544 051.6414 025.6276 0009450 148.8471 198.8268 15.71651309592479



More information about the SAREX mailing list